When you browse on this site, cookies collect data to enhance your experience and personalize the content and advertising you see.
Visit our Privacy Policy to learn more. By continuing to use the site, you agree to this use of cookies and data.
  • In Portugal
  • List of Countries
  • For 7 days
  • Water Temperature
  • Satellite Maps
  • Weather Map
  • Weather Widgets
  • user-avatar
    Login

    Hourly Weather Podskale

    Today, 25 March, Monday

    Time Temperature Precipitation Wind Pressure Humidity
    00:00 +8°C° 0.3 mm 1 mps 745 mmHg 63%
    01:00 +7°C° 0 mm 0 mps 745 mmHg 69%
    02:00 +8°C° 0.2 mm 1 mps 744 mmHg 72%
    03:00 +7°C° 0.2 mm 1 mps 744 mmHg 75%
    04:00 +6°C° 0.2 mm 2 mps 743 mmHg 78%
    05:00 +6°C° 0 mm 2 mps 743 mmHg 77%
    06:00 +7°C° 0 mm 3 mps 743 mmHg 75%
    07:00 +7°C° 0 mm 3 mps 743 mmHg 74%
    08:00 +8°C° 0.1 mm 3 mps 742 mmHg 66%
    09:00 +8°C° 0.1 mm 4 mps 742 mmHg 59%
    10:00 +10°C° 0.1 mm 4 mps 742 mmHg 51%
    11:00 +10°C° 0.1 mm 4 mps 741 mmHg 48%
    12:00 +9°C° 0.1 mm 5 mps 741 mmHg 45%
    13:00 +10°C° 0.1 mm 5 mps 741 mmHg 42%
    14:00 +9°C° 0.1 mm 5 mps 741 mmHg 44%
    15:00 +9°C° 0.1 mm 5 mps 741 mmHg 47%
    16:00 +8°C° 0.1 mm 5 mps 740 mmHg 50%
    17:00 +7°C° 0.1 mm 4 mps 741 mmHg 54%
    18:00 +7°C° 0.1 mm 4 mps 741 mmHg 58%
    19:00 +7°C° 0.1 mm 3 mps 742 mmHg 62%
    20:00 +5°C° 0.1 mm 3 mps 742 mmHg 67%
    21:00 +4°C° 0.1 mm 3 mps 743 mmHg 72%
    22:00 +4°C° 0.1 mm 3 mps 743 mmHg 77%
    23:00 +3°C° 0.1 mm 4 mps 744 mmHg 79%

    Tomorrow, 26 March, Tuesday

    Time Temperature Precipitation Wind Pressure Humidity
    00:00 +3°C° 0.1 mm 4 mps 745 mmHg 81%
    01:00 +3°C° 0.1 mm 4 mps 745 mmHg 84%
    02:00 +1°C° 0.1 mm 4 mps 746 mmHg 85%
    03:00 +1°C° 0.1 mm 4 mps 746 mmHg 86%
    04:00 +1°C° 0.1 mm 4 mps 746 mmHg 87%
    05:00 +1°C° 0 mm 4 mps 747 mmHg 85%
    06:00 +1°C° 0 mm 4 mps 747 mmHg 82%
    07:00 +1°C° 0 mm 5 mps 748 mmHg 80%
    08:00 +2°C° 0 mm 5 mps 748 mmHg 73%
    09:00 +5°C° 0 mm 5 mps 748 mmHg 66%
    10:00 +5°C° 0 mm 6 mps 748 mmHg 59%
    11:00 +5°C° 0 mm 6 mps 748 mmHg 56%
    12:00 +6°C° 0 mm 7 mps 748 mmHg 53%
    13:00 +8°C° 0 mm 7 mps 747 mmHg 50%
    14:00 +7°C° 0.1 mm 8 mps 747 mmHg 50%
    15:00 +6°C° 0.1 mm 8 mps 747 mmHg 49%
    16:00 +6°C° 0.1 mm 9 mps 746 mmHg 49%
    17:00 +5°C° 0.1 mm 9 mps 747 mmHg 53%
    18:00 +4°C° 0.1 mm 8 mps 747 mmHg 57%
    19:00 +2°C° 0.1 mm 8 mps 748 mmHg 62%
    20:00 +3°C° 0.1 mm 7 mps 748 mmHg 63%
    21:00 +2°C° 0.1 mm 7 mps 749 mmHg 65%
    22:00 +2°C° 0.1 mm 7 mps 750 mmHg 67%
    23:00 +1°C° 0 mm 6 mps 750 mmHg 64%

    Day after tomorrow, 27 March, Wednesday

    Time Temperature Precipitation Wind Pressure Humidity
    00:00 -1°C° 0 mm 4 mps 751 mmHg 62%
    01:00 -1°C° 0 mm 3 mps 751 mmHg 59%
    02:00 -1°C° 0 mm 3 mps 751 mmHg 61%
    03:00 -2°C° 0 mm 3 mps 752 mmHg 63%
    04:00 -2°C° 0 mm 3 mps 752 mmHg 65%
    05:00 -2°C° 0 mm 3 mps 753 mmHg 62%
    06:00 -1°C° 0 mm 3 mps 753 mmHg 59%
    07:00 0°C° 0 mm 3 mps 754 mmHg 56%
    08:00 +1°C° 0 mm 3 mps 754 mmHg 50%
    09:00 +2°C° 0 mm 3 mps 754 mmHg 43%
    10:00 +4°C° 0 mm 3 mps 754 mmHg 37%
    11:00 +5°C° 0 mm 3 mps 754 mmHg 34%
    12:00 +7°C° 0 mm 3 mps 754 mmHg 32%
    13:00 +8°C° 0 mm 3 mps 754 mmHg 29%
    14:00 +8°C° 0 mm 3 mps 754 mmHg 31%
    15:00 +8°C° 0 mm 3 mps 754 mmHg 34%
    16:00 +8°C° 0 mm 3 mps 754 mmHg 36%
    17:00 +7°C° 0 mm 3 mps 754 mmHg 43%
    18:00 +6°C° 0 mm 2 mps 755 mmHg 51%
    19:00 +5°C° 0 mm 2 mps 755 mmHg 58%
    20:00 +6°C° 0 mm 1 mps 755 mmHg 61%
    21:00 +6°C° 0 mm 1 mps 756 mmHg 64%
    22:00 +6°C° 0 mm 1 mps 756 mmHg 67%
    23:00 +6°C° 0.1 mm 1 mps 756 mmHg 70%

    28 March, Thursday

    Time Temperature Precipitation Wind Pressure Humidity
    00:00 +5°C° 0.1 mm 1 mps 756 mmHg 72%
    01:00 +4°C° 0.1 mm 2 mps 756 mmHg 75%
    02:00 +4°C° 0 mm 2 mps 756 mmHg 76%
    03:00 +5°C° 0 mm 1 mps 756 mmHg 77%
    04:00 +5°C° 0 mm 1 mps 756 mmHg 79%
    05:00 +5°C° 0 mm 1 mps 757 mmHg 77%
    06:00 +5°C° 0 mm 2 mps 757 mmHg 76%
    07:00 +5°C° 0 mm 2 mps 757 mmHg 75%
    08:00 +6°C° 0 mm 2 mps 757 mmHg 71%
    09:00 +8°C° 0 mm 2 mps 757 mmHg 68%
    10:00 +9°C° 0 mm 2 mps 757 mmHg 64%
    11:00 +10°C° 0.2 mm 2 mps 757 mmHg 64%
    12:00 +10°C° 0.2 mm 2 mps 757 mmHg 63%
    13:00 +10°C° 0.2 mm 2 mps 757 mmHg 63%
    14:00 +10°C° 0.3 mm 2 mps 757 mmHg 65%
    15:00 +10°C° 0.3 mm 2 mps 757 mmHg 67%
    16:00 +10°C° 0.3 mm 2 mps 757 mmHg 69%
    17:00 +10°C° 0 mm 1 mps 757 mmHg 74%
    18:00 +9°C° 0 mm 1 mps 757 mmHg 78%
    19:00 +7°C° 0 mm 0 mps 757 mmHg 83%
    20:00 +7°C° 0 mm 0 mps 758 mmHg 84%
    21:00 +6°C° 0 mm 0 mps 758 mmHg 86%
    22:00 +6°C° 0 mm 0 mps 758 mmHg 88%
    23:00 +5°C° 0 mm 0 mps 758 mmHg 88%

    29 March, Friday

    Time Temperature Precipitation Wind Pressure Humidity
    00:00 +6°C° 0 mm 1 mps 758 mmHg 89%
    01:00 +6°C° 0 mm 1 mps 759 mmHg 90%
    02:00 +6°C° 0 mm 1 mps 759 mmHg 91%
    03:00 +5°C° 0 mm 1 mps 759 mmHg 92%
    04:00 +5°C° 0 mm 1 mps 759 mmHg 92%
    05:00 +6°C° 0 mm 1 mps 759 mmHg 91%
    06:00 +6°C° 0 mm 1 mps 759 mmHg 90%
    07:00 +7°C° 0 mm 1 mps 759 mmHg 88%
    08:00 +8°C° 0 mm 1 mps 758 mmHg 81%
    09:00 +9°C° 0 mm 2 mps 758 mmHg 74%
    10:00 +10°C° 0 mm 2 mps 758 mmHg 67%
    11:00 +12°C° 0 mm 2 mps 758 mmHg 63%
    12:00 +13°C° 0 mm 2 mps 758 mmHg 59%
    13:00 +13°C° 0 mm 2 mps 757 mmHg 55%
    14:00 +13°C° 0 mm 2 mps 757 mmHg 56%
    15:00 +13°C° 0 mm 2 mps 757 mmHg 58%
    16:00 +13°C° 0 mm 2 mps 756 mmHg 59%
    17:00 +10°C° 0 mm 2 mps 756 mmHg 63%
    18:00 +9°C° 0 mm 2 mps 756 mmHg 67%
    19:00 +9°C° 0 mm 1 mps 756 mmHg 71%
    20:00 +8°C° 0 mm 1 mps 756 mmHg 73%
    21:00 +8°C° 0 mm 1 mps 756 mmHg 76%
    22:00 +7°C° 0 mm 1 mps 756 mmHg 78%
    23:00 +7°C° 0 mm 1 mps 756 mmHg 79%

    30 March, Saturday

    Time Temperature Precipitation Wind Pressure Humidity
    00:00 +7°C° 0 mm 1 mps 756 mmHg 81%
    01:00 +6°C° 0 mm 1 mps 756 mmHg 82%
    02:00 +6°C° 0 mm 1 mps 756 mmHg 83%
    03:00 +6°C° 0 mm 1 mps 755 mmHg 85%
    04:00 +5°C° 0 mm 1 mps 755 mmHg 87%
    05:00 +6°C° 0 mm 1 mps 755 mmHg 84%
    06:00 +7°C° 0 mm 1 mps 755 mmHg 81%
    07:00 +7°C° 0 mm 1 mps 755 mmHg 79%
    08:00 +9°C° 0 mm 1 mps 755 mmHg 72%
    09:00 +11°C° 0 mm 1 mps 754 mmHg 64%
    10:00 +13°C° 0 mm 1 mps 754 mmHg 57%
    11:00 +14°C° 0 mm 1 mps 753 mmHg 53%
    12:00 +15°C° 0 mm 1 mps 753 mmHg 49%
    13:00 +16°C° 0 mm 1 mps 752 mmHg 44%
    14:00 +16°C° 0 mm 1 mps 752 mmHg 43%
    15:00 +16°C° 0 mm 1 mps 751 mmHg 42%
    16:00 +16°C° 0 mm 1 mps 750 mmHg 41%
    17:00 +15°C° 0 mm 1 mps 750 mmHg 45%
    18:00 +13°C° 0 mm 1 mps 750 mmHg 50%
    19:00 +12°C° 0 mm 1 mps 750 mmHg 54%
    20:00 +11°C° 0 mm 1 mps 749 mmHg 56%
    21:00 +10°C° 0 mm 1 mps 749 mmHg 58%
    22:00 +9°C° 0 mm 2 mps 749 mmHg 61%
    23:00 +8°C° 0 mm 2 mps 749 mmHg 63%
    Show more